"read_dt","SO2 (ppb)","flags","PMT voltage (V)","lamp voltage (V)","lamp intensity (Hz)","internal temp (C)","react chamber temp (C)","sample flow (l/min)","pres (mmHg)","SO2 bkg (ppb)","SO2 coefficient"
2018-07-18 00:00:00,-2.054E-01,4C000000*,-703.0,971.469,90,25.3,44.9,0.409,742.0,2.2,1.050*
2018-07-18 00:01:00,-1.899E-01,4C000000*,-703.0,971.469,90,25.2,44.8,0.409,742.0,2.2,1.050*
2018-07-18 00:02:00,-2.350E-01,4C000000*,-703.0,971.469,91,25.3,45.0,0.410,742.0,2.2,1.050*
2018-07-18 00:03:00,-2.695E-01,4C000000*,-703.0,971.873,90,25.2,44.8,0.409,742.0,2.2,1.050*
2018-07-18 00:04:00,-2.646E-01,4C000000*,-703.0,970.661,90,25.3,44.9,0.409,742.0,2.2,1.050*
2018-07-18 00:05:00,-1.796E-01,4C000000*,-702.6,971.065,90,25.3,45.1,0.409,741.7,2.2,1.050*
2018-07-18 00:06:00,-2.140E-01,4C000000*,-703.0,971.065,90,25.3,44.8,0.409,742.0,2.2,1.050*
2018-07-18 00:07:00,-2.743E-01,4C000000*,-703.0,971.873,91,25.3,44.9,0.410,742.0,2.2,1.050*
2018-07-18 00:08:00,-2.585E-01,4C000000*,-703.0,971.873,90,25.4,45.2,0.409,742.0,2.2,1.050*
2018-07-18 00:09:00,-2.959E-01,4C000000*,-703.0,971.469,89,25.3,44.9,0.409,742.0,2.2,1.050*
2018-07-18 00:10:00,-2.808E-01,4C000000*,-703.0,971.065,90,25.4,45.1,0.409,742.0,2.2,1.050*
2018-07-18 00:11:00,-2.601E-01,4C000000*,-703.0,969.852,90,25.3,44.8,0.409,742.0,2.2,1.050*
2018-07-18 00:12:00,-2.684E-01,4C000000*,-703.0,970.661,90,25.4,44.8,0.409,742.0,2.2,1.050*
2018-07-18 00:13:00,-1.764E-01,4C000000*,-703.0,970.661,91,25.3,45.1,0.409,742.0,2.2,1.050*
2018-07-18 00:14:00,-2.598E-01,4C000000*,-703.0,970.661,90,25.4,44.8,0.409,742.0,2.2,1.050*
2018-07-18 00:15:00,-2.281E-01,4C000000*,-702.6,971.469,89,25.3,44.9,0.410,742.0,2.2,1.050*
2018-07-18 00:16:00,-3.005E-01,4C000000*,-703.0,970.661,91,25.3,45.1,0.409,741.7,2.2,1.050*
2018-07-18 00:17:00,-1.694E-01,4C000000*,-703.0,971.065,90,25.4,44.8,0.409,742.0,2.2,1.050*
2018-07-18 00:18:00,-1.918E-01,4C000000*,-702.6,970.661,90,25.4,45.0,0.409,742.0,2.2,1.050*
2018-07-18 00:19:00,-2.084E-01,4C000000*,-703.4,971.065,88,25.4,45.0,0.409,742.0,2.2,1.050*
2018-07-18 00:20:00,-2.989E-01,4C000000*,-703.0,970.661,90,25.4,44.8,0.409,742.0,2.2,1.050*
2018-07-18 00:21:00,-2.094E-01,4C000000*,-702.6,970.661,90,25.5,45.0,0.409,742.0,2.2,1.050*
2018-07-18 00:22:00,-2.513E-01,4C000000*,-702.3,971.065,90,25.4,44.9,0.410,742.0,2.2,1.050*
2018-07-18 00:23:00,-2.622E-01,4C000000*,-703.0,971.469,91,25.4,44.9,0.409,742.0,2.2,1.050*
2018-07-18 00:24:00,-2.799E-01,4C000000*,-703.0,970.256,90,25.4,45.1,0.409,742.0,2.2,1.050*
2018-07-18 00:25:00,-2.650E-01,4C000000*,-703.0,971.469,91,25.4,44.8,0.409,742.0,2.2,1.050*
2018-07-18 00:26:00,-2.192E-01,4C000000*,-703.0,970.661,90,25.5,44.9,0.410,742.0,2.2,1.050*
2018-07-18 00:27:00,-2.285E-01,4C000000*,-702.6,971.469,90,25.4,45.1,0.409,741.7,2.2,1.050*
2018-07-18 00:28:00,-2.075E-01,4C000000*,-702.6,970.661,90,25.5,44.8,0.409,742.0,2.2,1.050*
2018-07-18 00:29:00,-1.970E-01,4C000000*,-703.0,970.256,89,25.4,45.0,0.409,742.0,2.2,1.050*
2018-07-18 00:30:00,-2.408E-01,4C000000*,-702.6,969.852,90,25.4,45.1,0.409,741.7,2.2,1.050*
2018-07-18 00:31:00,-1.671E-01,4C000000*,-702.3,970.256,90,25.3,44.8,0.409,742.0,2.2,1.050*
2018-07-18 00:32:00,-2.207E-01,4C000000*,-703.0,971.065,90,25.4,45.0,0.410,741.7,2.2,1.050*
2018-07-18 00:33:00,-1.964E-01,4C000000*,-702.6,971.469,91,25.4,44.8,0.409,741.7,2.2,1.050*
2018-07-18 00:34:00,-2.011E-01,4C000000*,-703.0,971.469,90,25.4,44.8,0.409,742.0,2.2,1.050*
2018-07-18 00:35:00,-1.400E-01,4C000000*,-702.6,972.278,90,25.5,45.1,0.409,742.0,2.2,1.050*
2018-07-18 00:36:00,-2.408E-01,4C000000*,-702.6,971.469,89,25.4,44.8,0.410,741.7,2.2,1.050*
2018-07-18 00:37:00,-2.345E-01,4C000000*,-702.6,971.065,91,25.4,44.9,0.409,742.0,2.2,1.050*
2018-07-18 00:38:00,-1.921E-01,4C000000*,-703.0,971.065,90,25.4,45.1,0.409,741.7,2.2,1.050*
2018-07-18 00:39:00,-2.063E-01,4C000000*,-703.0,971.469,90,25.4,44.8,0.409,742.0,2.2,1.050*
2018-07-18 00:40:00,-3.028E-01,4C000000*,-703.0,970.256,91,25.5,45.0,0.409,742.0,2.2,1.050*
2018-07-18 00:41:00,-1.971E-01,4C000000*,-703.0,969.852,88,25.5,45.1,0.409,741.7,2.2,1.050*
2018-07-18 00:42:00,-1.953E-01,4C000000*,-702.6,969.852,90,25.5,44.8,0.410,742.0,2.2,1.050*
2018-07-18 00:43:00,-2.224E-01,4C000000*,-703.0,969.852,90,25.5,45.0,0.409,741.7,2.2,1.050*
2018-07-18 00:44:00,-2.857E-01,4C000000*,-703.0,970.661,90,25.5,44.9,0.409,741.7,2.2,1.050*
2018-07-18 00:45:00,-1.976E-01,4C000000*,-702.6,971.469,91,25.5,44.8,0.410,741.7,2.2,1.050*
2018-07-18 00:46:00,-1.777E-01,4C000000*,-702.6,970.661,91,25.4,45.1,0.409,741.7,2.2,1.050*
2018-07-18 00:47:00,-2.724E-01,4C000000*,-702.6,971.469,90,25.4,45.0,0.409,741.7,2.2,1.050*
2018-07-18 00:48:00,-2.391E-01,4C000000*,-703.0,970.256,89,25.5,44.8,0.409,742.0,2.2,1.050*
2018-07-18 00:49:00,-2.045E-01,4C000000*,-702.6,971.873,90,25.4,45.0,0.409,741.7,2.2,1.050*
2018-07-18 00:50:00,-1.769E-01,4C000000*,-703.0,970.256,90,25.5,44.9,0.410,741.7,2.2,1.050*
2018-07-18 00:51:00,-2.529E-01,4C000000*,-703.0,970.661,89,25.6,44.9,0.409,741.7,2.2,1.050*
2018-07-18 00:52:00,-2.715E-01,4C000000*,-703.0,969.448,90,25.5,45.1,0.409,741.7,2.2,1.050*
2018-07-18 00:53:00,-2.706E-01,4C000000*,-702.6,969.448,90,25.5,44.8,0.409,741.7,2.2,1.050*
2018-07-18 00:54:00,-2.372E-01,4C000000*,-703.0,971.065,90,25.5,44.9,0.409,741.7,2.2,1.050*
2018-07-18 00:55:00,-1.865E-01,4C000000*,-703.0,970.256,89,25.5,45.1,0.409,741.7,2.2,1.050*
2018-07-18 00:56:00,-3.004E-01,4C000000*,-703.0,971.469,88,25.5,44.8,0.409,741.7,2.2,1.050*
2018-07-18 00:57:00,-2.103E-01,4C000000*,-702.6,971.065,91,25.5,45.0,0.409,741.7,2.2,1.050*
2018-07-18 00:58:00,-2.372E-01,4C000000*,-703.0,971.873,90,25.5,45.0,0.409,741.4,2.2,1.050*
2018-07-18 00:59:00,-2.489E-01,4C000000*,-703.4,971.469,90,25.5,44.8,0.409,741.7,2.2,1.050*
2018-07-18 01:00:00,-2.625E-01,4C000000*,-702.6,970.661,90,25.5,45.0,0.409,741.7,2.2,1.050*
2018-07-18 01:01:00,-2.590E-01,4C000000*,-703.0,971.065,89,25.5,44.9,0.409,741.4,2.2,1.050*
2018-07-18 01:02:00,-1.753E-01,4C000000*,-703.0,971.469,90,25.5,44.8,0.409,741.7,2.2,1.050*
2018-07-18 01:03:00,-2.745E-01,4C000000*,-702.6,971.469,90,25.6,45.1,0.409,741.7,2.2,1.050*
2018-07-18 01:04:00,-1.861E-01,4C000000*,-702.6,971.873,91,25.6,44.9,0.409,741.7,2.2,1.050*
2018-07-18 01:05:00,-2.705E-01,4C000000*,-703.0,970.661,90,25.5,44.9,0.410,741.7,2.2,1.050*
2018-07-18 01:06:00,-2.749E-01,4C000000*,-703.0,971.065,89,25.6,45.1,0.410,741.7,2.2,1.050*
2018-07-18 01:07:00,-2.493E-01,4C000000*,-703.0,970.661,90,25.6,44.7,0.409,741.7,2.2,1.050*
2018-07-18 01:08:00,-2.855E-01,4C000000*,-703.0,970.661,90,25.5,44.9,0.409,741.7,2.2,1.050*
2018-07-18 01:09:00,-2.678E-01,4C000000*,-702.6,970.661,90,25.6,45.1,0.409,741.7,2.2,1.050*
2018-07-18 01:10:00,-2.603E-01,4C000000*,-703.0,971.469,89,25.5,44.8,0.409,741.7,2.2,1.050*
2018-07-18 01:11:00,-2.282E-01,4C000000*,-703.4,972.682,90,25.6,45.0,0.409,741.7,2.2,1.050*
2018-07-18 01:12:00,-2.148E-01,4C000000*,-703.0,970.256,89,25.5,44.9,0.409,741.4,2.2,1.050*
2018-07-18 01:13:00,-2.038E-01,4C000000*,-703.0,971.469,90,25.6,44.8,0.409,741.7,2.2,1.050*
2018-07-18 01:14:00,-2.246E-01,4C000000*,-702.6,971.469,90,25.5,45.0,0.409,741.4,2.2,1.050*
2018-07-18 01:15:00,-2.751E-01,4C000000*,-702.6,972.278,90,25.6,44.8,0.409,741.4,2.2,1.050*
2018-07-18 01:16:00,-2.466E-01,4C000000*,-703.0,969.852,90,25.5,44.9,0.409,741.4,2.2,1.050*
2018-07-18 01:17:00,-2.721E-01,4C000000*,-703.4,970.661,90,25.6,45.1,0.409,741.4,2.2,1.050*
2018-07-18 01:18:00,-2.897E-01,4C000000*,-703.0,971.065,89,25.5,44.8,0.409,741.4,2.2,1.050*
2018-07-18 01:19:00,-2.010E-01,4C000000*,-703.0,971.469,91,25.5,45.0,0.409,741.7,2.2,1.050*
2018-07-18 01:20:00,-2.101E-01,4C000000*,-703.0,971.065,90,25.5,45.0,0.409,741.4,2.2,1.050*
2018-07-18 01:21:00,-1.869E-01,4C000000*,-703.0,970.661,91,25.6,44.8,0.409,741.7,2.2,1.050*
2018-07-18 01:22:00,-2.424E-01,4C000000*,-702.6,972.682,91,25.5,45.0,0.409,741.7,2.2,1.050*
2018-07-18 01:23:00,-2.716E-01,4C000000*,-702.6,969.852,91,25.5,45.0,0.410,741.4,2.2,1.050*
2018-07-18 01:24:00,-2.681E-01,4C000000*,-703.0,970.256,90,25.6,44.9,0.409,741.4,2.2,1.050*
2018-07-18 01:25:00,-2.622E-01,4C000000*,-702.6,971.469,89,25.5,45.0,0.409,741.7,2.2,1.050*
2018-07-18 01:26:00,-1.218E-01,4C000000*,-703.0,972.278,90,25.6,44.8,0.409,741.4,2.2,1.050*
2018-07-18 01:27:00,-2.998E-01,4C000000*,-702.6,970.661,91,25.5,44.9,0.409,741.4,2.2,1.050*
2018-07-18 01:28:00,-2.476E-01,4C000000*,-703.0,971.065,90,25.6,45.2,0.409,741.4,2.2,1.050*
2018-07-18 01:29:00,-2.196E-01,4C000000*,-703.0,972.682,89,25.7,44.8,0.409,741.4,2.2,1.050*
2018-07-18 01:30:00,-2.247E-01,4C000000*,-703.0,971.469,90,25.6,45.0,0.409,741.4,2.2,1.050*
2018-07-18 01:31:00,-1.753E-01,4C000000*,-702.6,973.086,91,25.6,45.0,0.409,741.4,2.2,1.050*
2018-07-18 01:32:00,-1.792E-01,4C000000*,-702.6,971.065,90,25.6,44.8,0.409,741.4,2.2,1.050*
2018-07-18 01:33:00,-2.012E-01,4C000000*,-703.0,971.873,90,25.7,45.0,0.409,741.4,2.2,1.050*
2018-07-18 01:34:00,-2.488E-01,4C000000*,-702.6,970.661,90,25.7,45.0,0.409,741.4,2.2,1.050*
2018-07-18 01:35:00,-1.767E-01,4C000000*,-703.0,973.491,90,25.6,44.9,0.409,741.7,2.2,1.050*
2018-07-18 01:36:00,-1.786E-01,4C000000*,-703.4,971.873,90,25.7,45.1,0.409,741.4,2.2,1.050*
2018-07-18 01:37:00,-2.661E-01,4C000000*,-703.0,971.873,90,25.7,44.8,0.409,741.4,2.2,1.050*
"read_dt","SO2 (ppb)","flags","PMT voltage (V)","lamp voltage (V)","lamp intensity (Hz)","internal temp (C)","react chamber temp (C)","sample flow (l/min)","pres (mmHg)","SO2 bkg (ppb)","SO2 coefficient"
2018-07-18 01:46:00,-1.746E+00,4C000045*,-702.6,756.800,47,26.7,42.7,0.408,742.3,2.1,1.050*
2018-07-18 01:47:00,-5.254E-01,4C000005*,-702.6,958.128,88,26.2,42.9,0.408,742.3,2.1,1.050*
2018-07-18 01:48:00,-2.204E-01,4C000000*,-702.6,966.214,90,26.0,43.1,0.408,741.4,2.2,1.050*
2018-07-18 01:49:00,-2.178E-01,4C000000*,-702.6,966.618,90,25.8,43.4,0.408,741.7,2.2,1.050*
2018-07-18 01:50:00,-2.497E-01,4C000000*,-703.0,969.044,89,25.7,43.7,0.409,741.4,2.2,1.050*
2018-07-18 01:51:00,-1.868E-01,4C000000*,-703.0,969.044,89,25.8,44.1,0.409,741.1,2.2,1.050*
2018-07-18 01:52:00,-3.066E-01,4C000000*,-703.0,968.235,90,25.8,44.4,0.409,741.1,2.2,1.050*
2018-07-18 01:53:00,-2.098E-01,4C000000*,-703.0,969.448,89,25.8,44.8,0.409,741.1,2.2,1.050*
2018-07-18 01:54:00,-1.925E-01,4C000000*,-702.6,968.639,88,25.8,45.0,0.409,741.1,2.2,1.050*
2018-07-18 01:55:00,-2.184E-01,4C000000*,-703.0,969.044,90,25.8,44.9,0.409,741.1,2.2,1.050*
2018-07-18 01:56:00,-1.660E-01,4C000000*,-702.6,968.639,91,25.8,45.0,0.409,741.1,2.2,1.050*
2018-07-18 01:57:00,-3.093E-01,4C000000*,-703.0,969.852,90,25.9,45.1,0.409,741.1,2.2,1.050*
2018-07-18 01:58:00,-1.873E-01,4C000000*,-703.0,969.852,90,25.9,44.8,0.409,741.1,2.2,1.050*
2018-07-18 01:59:00,-2.707E-01,4C000000*,-703.0,969.044,89,25.8,45.0,0.409,741.1,2.2,1.050*
2018-07-18 02:00:00,-2.666E-01,4C000000*,-703.0,969.044,89,25.8,44.8,0.409,741.1,2.2,1.050*
2018-07-18 02:01:00,-2.080E-01,4C000000*,-703.0,969.852,91,25.8,44.8,0.409,741.1,2.2,1.050*
2018-07-18 02:02:00,-1.775E-01,4C000000*,-702.6,969.448,91,25.9,45.2,0.409,741.1,2.2,1.050*
2018-07-18 02:03:00,-2.847E-01,4C000000*,-703.0,969.448,90,25.8,44.8,0.409,741.1,2.2,1.050*
2018-07-18 02:04:00,-2.321E-01,4C000000*,-703.0,971.469,88,25.8,44.9,0.409,741.1,2.2,1.050*
2018-07-18 02:05:00,-2.560E-01,4C000000*,-702.6,971.065,90,25.8,45.0,0.409,741.1,2.2,1.050*
2018-07-18 02:06:00,-1.514E-01,4C000000*,-702.6,970.256,90,25.9,44.8,0.409,741.1,2.2,1.050*
2018-07-18 02:07:00,-2.034E-01,4C000000*,-703.0,970.256,90,25.8,45.0,0.409,741.1,2.2,1.050*
2018-07-18 02:08:00,-2.428E-01,4C000000*,-702.6,971.469,90,25.9,45.0,0.409,741.1,2.2,1.050*
2018-07-18 02:09:00,-3.520E-01,4C000000*,-703.0,971.065,89,25.9,44.8,0.409,741.1,2.2,1.050*
2018-07-18 02:10:00,-2.751E-01,4C000000*,-703.0,970.661,90,25.8,45.0,0.409,741.1,2.2,1.050*
2018-07-18 02:11:00,-3.441E-01,4C000000*,-703.0,971.873,89,25.9,44.9,0.409,741.1,2.2,1.050*
2018-07-18 02:12:00,-2.507E-01,4C000000*,-702.6,969.448,90,25.8,44.9,0.409,741.1,2.2,1.050*
2018-07-18 02:13:00,-2.442E-01,4C000000*,-703.0,970.256,90,25.8,45.1,0.409,741.1,2.2,1.050*
2018-07-18 02:14:00,-2.877E-01,4C000000*,-702.6,970.256,90,25.8,44.8,0.409,740.8,2.2,1.050*
2018-07-18 02:15:00,-2.194E-01,4C000000*,-702.6,970.661,91,25.8,45.0,0.409,740.8,2.2,1.050*
2018-07-18 02:16:00,-3.098E-01,4C000000*,-703.4,970.661,89,25.9,45.0,0.409,740.8,2.2,1.050*
2018-07-18 02:17:00,-2.223E-01,4C000000*,-702.6,970.256,90,25.9,44.8,0.409,741.1,2.2,1.050*
2018-07-18 02:18:00,-1.212E-01,4C000000*,-703.0,970.256,89,25.9,45.0,0.409,741.1,2.2,1.050*
2018-07-18 02:19:00,-2.021E-01,4C000000*,-703.0,970.661,90,25.9,45.1,0.409,740.8,2.2,1.050*
2018-07-18 02:20:00,-3.136E-01,4C000000*,-702.6,971.469,90,25.9,44.8,0.409,740.8,2.2,1.050*
2018-07-18 02:21:00,-2.347E-01,4C000000*,-702.6,971.469,89,25.9,45.1,0.409,740.8,2.2,1.050*
2018-07-18 02:22:00,-2.486E-01,4C000000*,-702.6,971.873,90,25.9,44.8,0.409,740.8,2.2,1.050*
2018-07-18 02:23:00,-2.817E-01,4C000000*,-702.6,971.469,88,25.9,44.8,0.409,740.8,2.2,1.050*
2018-07-18 02:24:00,-2.279E-01,4C000000*,-702.6,970.256,90,25.9,45.2,0.409,740.8,2.2,1.050*
2018-07-18 02:25:00,-2.684E-01,4C000000*,-702.6,970.256,90,26.0,44.8,0.409,740.8,2.2,1.050*
2018-07-18 02:26:00,-2.432E-01,4C000000*,-703.0,969.852,90,25.9,45.0,0.409,740.8,2.2,1.050*
2018-07-18 02:27:00,-2.910E-01,4C000000*,-703.0,971.469,90,26.0,45.0,0.409,740.5,2.2,1.050*
2018-07-18 02:28:00,-1.933E-01,4C000000*,-702.6,971.469,90,25.9,44.8,0.409,740.8,2.2,1.050*
2018-07-18 02:29:00,-2.931E-01,4C000000*,-703.0,970.661,91,25.9,44.9,0.409,740.5,2.2,1.050*
2018-07-18 02:30:00,-2.320E-01,4C000000*,-703.0,970.661,90,25.9,45.0,0.409,740.5,2.2,1.050*
2018-07-18 02:31:00,-3.207E-01,4C000000*,-702.6,970.661,90,25.9,44.8,0.409,740.8,2.2,1.050*
2018-07-18 02:32:00,-2.394E-01,4C000000*,-703.0,971.873,89,25.9,45.1,0.409,740.8,2.2,1.050*
2018-07-18 02:33:00,-2.966E-01,4C000000*,-703.0,970.661,91,25.9,44.9,0.409,740.8,2.2,1.050*
2018-07-18 02:34:00,-3.072E-01,4C000000*,-702.6,972.278,91,25.9,44.9,0.409,740.8,2.2,1.050*
2018-07-18 02:35:00,-2.973E-01,4C000000*,-702.3,971.065,91,26.0,45.1,0.409,740.8,2.2,1.050*
2018-07-18 02:36:00,-3.043E-01,4C000000*,-702.6,970.256,90,26.0,44.8,0.409,740.8,2.2,1.050*
2018-07-18 02:37:00,-2.157E-01,4C000000*,-703.0,971.065,89,26.0,44.9,0.409,740.8,2.2,1.050*
2018-07-18 02:38:00,-2.628E-01,4C000000*,-702.6,970.661,90,26.0,45.1,0.409,740.5,2.2,1.050*
2018-07-18 02:39:00,-1.968E-01,4C000000*,-702.6,970.661,90,25.9,44.8,0.409,740.5,2.2,1.050*
2018-07-18 02:40:00,-2.400E-01,4C000000*,-702.6,971.065,91,26.0,45.0,0.409,740.8,2.2,1.050*
2018-07-18 02:41:00,-2.203E-01,4C000000*,-702.6,971.065,91,26.0,44.9,0.409,740.5,2.2,1.050*
2018-07-18 02:42:00,-2.623E-01,4C000000*,-702.6,971.065,89,26.0,44.9,0.409,740.8,2.2,1.050*
2018-07-18 02:43:00,-2.870E-01,4C000000*,-703.0,970.661,89,26.0,45.1,0.409,740.8,2.2,1.050*
2018-07-18 02:44:00,-2.216E-01,4C000000*,-703.0,971.469,91,26.0,44.8,0.409,740.8,2.2,1.050*
2018-07-18 02:45:00,-2.347E-01,4C000000*,-702.6,970.661,89,26.1,45.0,0.409,740.5,2.2,1.050*
2018-07-18 02:46:00,-2.554E-01,4C000000*,-702.6,970.661,89,26.0,45.0,0.409,740.5,2.2,1.050*
2018-07-18 02:47:00,-2.342E-01,4C000000*,-703.0,971.065,89,26.0,44.8,0.409,740.8,2.2,1.050*
2018-07-18 02:48:00,-2.455E-01,4C000000*,-702.6,971.065,89,26.1,45.1,0.409,740.8,2.2,1.050*
2018-07-18 02:49:00,-1.602E-01,4C000000*,-703.0,970.661,90,26.1,44.9,0.409,740.5,2.2,1.050*
2018-07-18 02:50:00,-2.384E-01,4C000000*,-702.6,970.256,90,26.1,44.8,0.409,740.5,2.2,1.050*
2018-07-18 02:51:00,-2.690E-01,4C000000*,-703.0,970.661,90,26.1,45.1,0.409,740.5,2.2,1.050*
2018-07-18 02:52:00,-2.152E-01,4C000000*,-703.0,971.065,90,26.0,44.9,0.409,740.5,2.2,1.050*
2018-07-18 02:53:00,-2.443E-01,4C000000*,-702.6,971.469,90,26.1,45.0,0.409,740.5,2.2,1.050*
2018-07-18 02:54:00,-2.407E-01,4C000000*,-703.4,970.256,90,26.2,45.0,0.409,740.5,2.2,1.050*
2018-07-18 02:55:00,-2.694E-01,4C000000*,-702.6,973.086,89,26.1,44.8,0.409,740.5,2.2,1.050*
2018-07-18 02:56:00,-2.335E-01,4C000000*,-703.0,970.256,89,26.2,45.1,0.409,740.5,2.2,1.050*
2018-07-18 02:57:00,-2.278E-01,4C000000*,-703.0,970.256,90,26.1,44.8,0.409,740.5,2.2,1.050*
2018-07-18 02:58:00,-2.023E-01,4C000000*,-702.6,971.469,90,26.2,44.9,0.409,740.5,2.2,1.050*
2018-07-18 02:59:00,-2.451E-01,4C000000*,-702.6,970.256,90,26.2,45.2,0.409,740.5,2.2,1.050*
2018-07-18 03:00:00,-2.285E-01,4C000000*,-702.6,972.278,91,26.2,44.8,0.409,740.5,2.2,1.050*
2018-07-18 03:01:00,-2.160E-01,4C000000*,-702.6,970.661,90,26.2,45.0,0.409,740.5,2.2,1.050*
2018-07-18 03:02:00,-3.018E-01,4C000000*,-702.6,970.256,90,26.1,45.0,0.409,740.5,2.2,1.050*
2018-07-18 03:03:00,-1.606E-01,4C000000*,-703.0,972.278,88,26.2,44.8,0.408,740.5,2.2,1.050*
2018-07-18 03:04:00,-2.833E-01,4C000000*,-703.0,970.661,90,26.2,45.0,0.409,740.5,2.2,1.050*
2018-07-18 03:05:00,-2.517E-01,4C000000*,-703.0,970.661,90,26.2,45.0,0.409,740.5,2.2,1.050*
2018-07-18 03:06:00,-2.379E-01,4C000000*,-702.6,970.256,91,26.1,44.8,0.409,740.5,2.2,1.050*
2018-07-18 03:07:00,-2.168E-01,4C000000*,-702.6,971.065,90,26.2,45.0,0.409,740.5,2.2,1.050*
2018-07-18 03:08:00,-2.132E-01,4C000000*,-702.6,971.065,91,26.2,44.9,0.409,740.5,2.2,1.050*
2018-07-18 03:09:00,-2.500E-01,4C000000*,-702.6,971.065,90,26.1,44.9,0.409,740.5,2.2,1.050*
2018-07-18 03:10:00,-3.023E-01,4C000000*,-702.6,970.661,90,26.2,45.2,0.409,740.5,2.2,1.050*
2018-07-18 03:11:00,-3.028E-01,4C000000*,-702.6,971.469,89,26.2,44.8,0.409,740.5,2.2,1.050*
2018-07-18 03:12:00,-3.428E-01,4C000000*,-702.6,970.256,90,26.2,45.0,0.409,740.5,2.2,1.050*
2018-07-18 03:13:00,-2.489E-01,4C000000*,-702.6,971.873,88,26.2,45.1,0.409,740.2,2.2,1.050*
2018-07-18 03:14:00,-2.198E-01,4C000000*,-703.0,970.256,89,26.2,44.8,0.409,740.2,2.2,1.050*
2018-07-18 03:15:00,-2.348E-01,4C000000*,-703.0,968.639,89,26.2,45.0,0.409,740.5,2.2,1.050*
2018-07-18 03:16:00,-2.609E-01,4C000000*,-703.0,970.661,88,26.2,45.1,0.409,740.5,2.2,1.050*
2018-07-18 03:17:00,-2.469E-01,4C000000*,-703.0,970.256,89,26.2,44.8,0.409,740.5,2.2,1.050*
2018-07-18 03:18:00,-2.496E-01,4C000000*,-702.6,970.661,91,26.2,45.0,0.409,740.2,2.2,1.050*
2018-07-18 03:19:00,-2.057E-01,4C000000*,-702.6,970.256,90,26.2,44.8,0.409,740.2,2.2,1.050*
2018-07-18 03:20:00,-2.562E-01,4C000000*,-703.0,970.256,90,26.3,45.1,0.408,740.2,2.2,1.050*
2018-07-18 03:21:00,-2.309E-01,4C000000*,-702.6,969.852,90,26.2,44.8,0.409,740.2,2.2,1.050*
2018-07-18 03:22:00,-2.201E-01,4C000000*,-702.6,969.448,89,26.2,44.9,0.409,740.5,2.2,1.050*
2018-07-18 03:23:00,-2.593E-01,4C000000*,-702.6,970.661,90,26.3,45.1,0.409,739.9,2.2,1.050*
2018-07-18 03:24:00,-1.856E-01,4C000000*,-702.6,970.661,88,26.3,44.7,0.409,740.2,2.2,1.050*
2018-07-18 03:25:00,-2.625E-01,4C000000*,-702.6,969.448,91,26.3,45.0,0.409,740.2,2.2,1.050*
2018-07-18 03:26:00,-2.180E-01,4C000000*,-702.6,969.448,90,26.3,45.1,0.409,740.2,2.2,1.050*
2018-07-18 03:27:00,-2.580E-01,4C000000*,-703.0,968.639,90,26.2,44.8,0.409,740.2,2.2,1.050*
2018-07-18 03:28:00,-2.112E-01,4C000000*,-702.6,969.448,89,26.3,45.0,0.409,740.2,2.2,1.050*
2018-07-18 03:29:00,-1.471E-01,4C000000*,-703.0,971.065,90,26.3,44.9,0.409,739.9,2.2,1.050*
2018-07-18 03:30:00,-2.472E-01,4C000000*,-702.6,969.448,91,26.2,44.9,0.409,739.9,2.2,1.050*
2018-07-18 03:31:00,-3.253E-01,4C000000*,-702.6,969.044,90,26.3,45.1,0.409,739.9,2.2,1.050*
2018-07-18 03:32:00,-2.855E-01,4C000000*,-702.6,968.639,89,26.2,44.8,0.408,739.9,2.2,1.050*
2018-07-18 03:33:00,-2.934E-01,4C000000*,-702.6,969.044,90,26.3,44.9,0.408,739.9,2.2,1.050*
2018-07-18 03:34:00,-2.853E-01,4C000000*,-703.0,969.852,90,26.3,45.1,0.409,739.9,2.2,1.050*
2018-07-18 03:35:00,-2.278E-01,4C000000*,-702.6,969.448,89,26.2,44.8,0.409,740.2,2.2,1.050*
2018-07-18 03:36:00,-2.496E-01,4C000000*,-702.6,969.448,90,26.2,45.0,0.409,740.2,2.2,1.050*
2018-07-18 03:37:00,-2.582E-01,4C000000*,-702.6,969.448,91,26.3,45.0,0.408,740.2,2.2,1.050*
2018-07-18 03:38:00,-2.625E-01,4C000000*,-702.6,969.044,91,26.3,44.8,0.409,740.2,2.2,1.050*
2018-07-18 03:39:00,-2.764E-01,4C000000*,-702.6,969.044,90,26.3,45.0,0.409,739.9,2.2,1.050*
2018-07-18 03:40:00,-2.325E-01,4C000000*,-703.0,969.852,90,26.3,44.9,0.409,739.9,2.2,1.050*
2018-07-18 03:41:00,-1.806E-01,4C000000*,-703.0,968.235,91,26.3,44.9,0.409,740.2,2.2,1.050*
2018-07-18 03:42:00,-2.646E-01,4C000000*,-702.6,968.639,90,26.3,45.1,0.409,740.2,2.2,1.050*
2018-07-18 03:43:00,-2.573E-01,4C000000*,-702.6,969.044,90,26.3,44.8,0.409,739.9,2.2,1.050*
2018-07-18 03:44:00,-2.781E-01,4C000000*,-703.0,968.639,90,26.3,44.9,0.409,740.2,2.2,1.050*
2018-07-18 03:45:00,-2.615E-01,4C000000*,-702.6,969.044,90,26.4,45.2,0.409,740.2,2.2,1.050*
2018-07-18 03:46:00,-2.784E-01,4C000000*,-703.0,970.256,89,26.2,44.8,0.409,740.2,2.2,1.050*
2018-07-18 03:47:00,-2.619E-01,4C000000*,-702.6,969.448,89,26.4,45.0,0.409,739.9,2.2,1.050*
2018-07-18 03:48:00,-2.569E-01,4C000000*,-703.0,969.852,88,26.5,45.1,0.408,739.9,2.2,1.050*
2018-07-18 03:49:00,-2.245E-01,4C000000*,-702.6,969.044,91,26.3,44.8,0.409,739.9,2.2,1.050*
2018-07-18 03:50:00,-2.479E-01,4C000000*,-702.6,969.852,89,26.4,45.1,0.409,739.9,2.2,1.050*
2018-07-18 03:51:00,-3.455E-01,4C000000*,-702.6,969.044,90,26.3,45.0,0.409,739.9,2.2,1.050*
2018-07-18 03:52:00,-2.993E-01,4C000000*,-703.0,971.065,90,26.4,44.8,0.409,739.9,2.2,1.050*
2018-07-18 03:53:00,-2.519E-01,4C000000*,-703.0,969.852,90,26.4,45.1,0.409,739.9,2.2,1.050*
2018-07-18 03:54:00,-2.397E-01,4C000000*,-703.0,968.639,90,26.4,44.8,0.409,739.9,2.2,1.050*
2018-07-18 03:55:00,-2.768E-01,4C000000*,-702.6,969.852,90,26.3,44.9,0.409,739.6,2.2,1.050*
2018-07-18 03:56:00,-2.231E-01,4C000000*,-703.0,968.235,90,26.4,45.2,0.409,739.9,2.2,1.050*
2018-07-18 03:57:00,-2.982E-01,4C000000*,-702.6,969.448,91,26.4,44.8,0.408,739.6,2.2,1.050*
2018-07-18 03:58:00,-1.771E-01,4C000000*,-702.6,969.044,90,26.4,44.9,0.408,739.9,2.2,1.050*
2018-07-18 03:59:00,-2.307E-01,4C000000*,-702.6,969.448,88,26.4,45.0,0.409,739.6,2.2,1.050*
2018-07-18 04:00:00,-3.376E-01,4C000000*,-703.0,970.661,90,26.4,44.8,0.409,739.9,2.2,1.050*
2018-07-18 04:01:00,-2.313E-01,4C000000*,-703.0,970.256,89,26.4,45.1,0.409,739.6,2.2,1.050*
2018-07-18 04:02:00,-3.120E-01,4C000000*,-702.6,969.448,89,26.5,44.9,0.409,739.6,2.2,1.050*
2018-07-18 04:03:00,-2.354E-01,4C000000*,-703.4,970.256,91,26.4,45.0,0.409,739.6,2.2,1.050*
2018-07-18 04:04:00,-1.713E-01,4C000000*,-702.6,970.256,90,26.4,45.0,0.409,739.6,2.2,1.050*
2018-07-18 04:05:00,-3.099E-01,4C000000*,-702.3,969.852,90,26.5,44.8,0.409,739.9,2.2,1.050*
2018-07-18 04:06:00,-2.486E-01,4C000000*,-702.6,968.639,90,26.4,45.0,0.408,739.9,2.2,1.050*
2018-07-18 04:07:00,-2.262E-01,4C000000*,-703.0,970.256,90,26.5,45.0,0.408,739.6,2.2,1.050*
2018-07-18 04:08:00,-3.161E-01,4C000000*,-702.3,969.044,90,26.4,44.8,0.408,739.9,2.2,1.050*
2018-07-18 04:09:00,-1.407E-01,4C000000*,-702.6,970.661,89,26.5,45.0,0.409,739.9,2.2,1.050*
2018-07-18 04:10:00,-2.793E-01,4C000000*,-702.6,969.448,90,26.5,44.9,0.409,739.6,2.2,1.050*
2018-07-18 04:11:00,-3.053E-01,4C000000*,-703.0,970.661,89,26.5,44.9,0.409,739.6,2.2,1.050*
2018-07-18 04:12:00,-1.956E-01,4C000000*,-703.0,969.044,89,26.5,45.2,0.409,739.6,2.2,1.050*
2018-07-18 04:13:00,-2.295E-01,4C000000*,-703.0,968.639,90,26.5,44.8,0.409,739.6,2.2,1.050*
2018-07-18 04:14:00,-2.879E-01,4C000000*,-703.0,969.044,89,26.4,44.9,0.408,739.6,2.2,1.050*
2018-07-18 04:15:00,-1.565E-01,4C000000*,-703.0,970.256,89,26.5,45.1,0.409,739.6,2.2,1.050*
2018-07-18 04:16:00,-2.385E-01,4C000000*,-702.6,969.852,90,26.5,44.8,0.409,739.6,2.2,1.050*
2018-07-18 04:17:00,-2.717E-01,4C000000*,-703.0,969.852,90,26.5,45.0,0.409,739.6,2.2,1.050*
2018-07-18 04:18:00,-2.819E-01,4C000000*,-703.0,970.256,90,26.5,45.0,0.408,739.6,2.2,1.050*
2018-07-18 04:19:00,-2.989E-01,4C000000*,-703.0,969.852,91,26.4,44.8,0.408,739.6,2.2,1.050*
2018-07-18 04:20:00,-3.183E-01,4C000000*,-702.6,970.661,90,26.5,45.1,0.409,739.6,2.2,1.050*